This is the latest recevied weather packets stored in our database for station/object KG7FOQ-13. If no packets are shown the sender has not sent any weather packets the latest 10 day(s).
| Time | Temp. | Humidity | Pressure | Rain* | Wind** | Luminosity | Snow |
|---|---|---|---|---|---|---|---|
| 1777766393 | 24.44° C | 7% | 1013 hPa | 0 mm | - | - | - |
| 1777766092 | 24.44° C | 7% | 1013.2 hPa | 0 mm | - | - | - |
| 1777765835 | 24.44° C | 10% | 1013.2 hPa | 0 mm | - | - | - |
| 1777765792 | 24.44° C | 10% | 1013.2 hPa | 0 mm | - | - | - |
| 1777765491 | 23.89° C | 9% | 1012.9 hPa | 0 mm | - | - | - |
| 1777765190 | 24.44° C | 9% | 1013.2 hPa | 0 mm | - | - | - |
| 1777764889 | 24.44° C | 7% | 1013.3 hPa | 0 mm | - | - | - |
| 1777764589 | 25° C | 7% | 1013.3 hPa | 0 mm | - | - | - |
| 1777764288 | 25.56° C | 7% | 1013.4 hPa | 0 mm | - | - | - |
| 1777763988 | 24.44° C | 8% | 1013.4 hPa | 0 mm | - | - | - |
| 1777763687 | 23.89° C | 9% | 1013.5 hPa | 0 mm | - | - | - |
| 1777763616 | 23.89° C | 9% | 1013.6 hPa | 0 mm | - | - | - |
| 1777763600 | 23.89° C | 9% | 1013.6 hPa | 0 mm | - | - | - |
| 1777763600 | 23.89° C | 8% | 1013.6 hPa | 0 mm | - | - | - |
| 1777763583 | 24.44° C | 7% | 1013.6 hPa | 0 mm | - | - | - |
| 1777763387 | 23.89° C | 9% | 1013.6 hPa | 0 mm | - | - | - |
| 1777763086 | 23.89° C | 9% | 1013.6 hPa | 0 mm | - | - | - |
| 1777762786 | 23.89° C | 8% | 1013.6 hPa | 0 mm | - | - | - |
| 1777762485 | 24.44° C | 7% | 1013.6 hPa | 0 mm | - | - | - |
| 1777762312 | 24.44° C | 8% | 1013.7 hPa | 0 mm | - | - | - |
| 1777762312 | 23.89° C | 7% | 1013.7 hPa | 0 mm | - | - | - |
| 1777762306 | 23.89° C | 8% | 1013.8 hPa | 0 mm | - | - | - |
| 1777762185 | 23.89° C | 7% | 1013.7 hPa | 0 mm | - | - | - |
| 1777761884 | 24.44° C | 8% | 1013.7 hPa | 0 mm | - | - | - |
| 1777761671 | 23.89° C | 8% | 1013.7 hPa | 0 mm | - | - | - |
* Rain latest hour (hover to see other rain measurements)
** Current wind speed in m/s (hover to see current wind gust speed)